Showing default

OCO 2, 40059

Orbit data source: Space-Track

OCO 2, 40059 is a payload satellite owned by GSFC (US) in SSO that was launched on Wed, 02 Jul 2014 UTC via a DELTA 7320-10C launch vehicle from the Air Force Western Test Range (AFWTR). Payload-class satellites include a variety of spacecraft equipped with specific instruments for various scientific and technological missions. These include communications satellites like Starlink; space stations such as the ISS; scientific satellites like the Hubble; Earth observation satellites from companies like Planet Labs, Umbra, and HawkEye 360; GPS; miniature CubeSats for education and research; and military/defense satellites.

Loading next visibility...
Identifier
40059, 2014-035A
Orbit
SSO
Country
Flag of USUS
Related business
Manufacturer
OSC
Mission
Operational Civil Science
Bus & Motor
LEOSTAR-2, AOCS
Mass
454 kg wet, 409 kg dry
Launch date (UTC)
2014-07-02 (11 years ago)
Launch vehicle
DELTA 7320-10C
Launch site
Air Force Western Test Range (AFWTR)
Object type
Payload
Rocket body
Debris
Shape & HBR
Hex Cyl + 2 Pan, 4.5 m
Radar Cross Section
3.820 m², Large (>1 m²)

Expand to show TLE details & history
Last TLE update: 9 hours ago

TLE from 9 hours ago
0 OCO 2
1 40059U 14035A   25349.87593923  .00000535  00000-0  12892-3 0  9998
2 40059  98.2219 288.7879 0001257  97.5539 262.5803 14.57051017609353
Epoch: 2025-12-15T21:01Z
TLE epoch observation values (Epoch: 2025-12-15T21:01:21.149Z)
Latitude
0.00005°
Longitude
-111.31845°
Altitude
705.808 km
Speed
7.503 km/s
True Right ascension
19h 15m 09s
True Declination
0° 00' 00"
Sunlit
Object was in daylight at epoch
Visualization orbit readout
Latitude
Unknown
Longitude
Unknown
Altitude
Unknown
Speed
Unknown
Apparent Right ascension
Unknown
Apparent Declination
Unknown
Sunlit
N/A
Visualization observer readout
Local Sidereal Time
05:04:14
Azimuth
Unknown
Elevation
Unknown
Doppler factor
Unknown
Orbital elements
Apogee altitude
700.688 km
Perigee altitude
698.908 km
Semi-major axis
7,077.935 km
Eccentricity
0.00013
Inclination
98.2219°
RAAN
288.7879°
Arg. of periapsis
97.5539°
True anomaly
262.56602°
Mean anomaly
262.5803°
Eccentric anomaly
262.57316°
Mean motion
3.64488 °/min
Orbital period
98.77 mins
BSTAR
0.00012892
Loading maneuver chart data...
Computing Atmospheric mass density...
Loading historical data...
Loading historical data...
Loading historical data...
Loading historical data...
Loading historical data...
Loading historical data...
Loading historical data...
Other satellites on launch #35 in the year 2014 (2014-07-02 UTC)

Documentation

Showing up to 5 results
|